Location: Carella
(45.8167°N, 9.2667°E)
Time: 07:45:21
(UTC+00:00)

STARLINK-1121 - Pass Details

Date: 30 March 2020
Orbit: 548 x 551 km, 53.0° (Epoch: 02 June)

Event Time Altitude Azimuth Distance (km) Brightness Sun altitude
Rises 18:53:58 0° 300° (WNW) 2,732 9.1 -11.8°
Reaches altitude 10° 18:56:17 10° 306° (NW) 1,836 7.6 -12.2°
Maximum altitude 19:00:19 46° 21° (NNE) 745 4.2 -12.9°
Enters shadow 19:02:58 19° 88° (E) 1,330 5.0 -13.3°
